Eastsound, WA

6:21 AM PDT on June 29, 2017 (GMT -0700)
Orcas Island

Weather History for KORS - December, 2011

Change the Weather History Date:

Saturday, December 17, 2011

  Actual Average (KFHR) Record (KFHR)
Temperature  
Mean Temperature 44 °F -  
Max Temperature 48 °F 43 °F 51 °F (2011)
Min Temperature 41 °F 34 °F 21 °F (2016)
Degree Days  
Heating Degree Days 20    
Moisture  
Dew Point 41 °F    
Average Humidity 90    
Maximum Humidity 100    
Minimum Humidity 71    
Precipitation  
Precipitation 0.00 in - - ()
Sea Level Pressure  
Sea Level Pressure 30.17 in    
Wind  
Wind Speed 1 mph (South)    
Max Wind Speed 16 mph    
Max Gust Speed 22 mph    
Visibility 10 miles    
Events Rain    
Averages and records for this station are not official NWS values.
T = Trace of Precipitation, MM = Missing Value Source: NWS Daily Summary

Daily Weather History Graph

Daily Weather History Graph

Search for Another Location

Airport or City:

Trip Planner

Search our weather history database for the weather conditions in past years. The results will help you decide how hot, cold, wet, or windy it might be!

Date:

Astronomy

Dec. 17, 2011 Rise Set
Actual Time 7:59 AM PST 4:16 PM PST
Civil Twilight 7:22 AM PST 4:53 PM PST
Nautical Twilight 6:41 AM PST 5:33 PM PST
Astronomical Twilight 6:03 AM PST 6:12 PM PST
Moon No Moon Rise 11:43 AM PST (12/17)
Length of Visible Light 9h 31m
Length of Day
8h 17m
Waning Gibbous, 52% of the Moon is Illuminated
Dec 17
Waning Gibbous
Dec 17
Last Quarter
Dec 24
New
Dec 31
First Quarter
Jan 8
Full

Hourly Weather History & Observations

Time (PST) Temp. Windchill Dew Point Humidity Pressure Visibility Wind Dir Wind Speed Gust Speed Precip Events Conditions
12:15 AM 44.6 °F - 41.0 °F 87% 30.38 in 10.0 mi Calm Calm - N/A   Overcast
12:35 AM 44.6 °F - 42.8 °F 93% 30.38 in 10.0 mi North - - N/A   Overcast
12:55 AM 44.6 °F - 42.8 °F 93% 30.37 in 10.0 mi Calm Calm - N/A   Overcast
1:15 AM 44.6 °F - 42.8 °F 93% 30.36 in 10.0 mi Calm Calm - N/A   Mostly Cloudy
1:35 AM 44.6 °F - 41.0 °F 87% 30.35 in 10.0 mi Calm Calm - N/A   Partly Cloudy
1:55 AM 42.8 °F 41.1 °F 41.0 °F 93% 30.34 in 10.0 mi East 3.5 mph - N/A   Clear
2:15 AM 42.8 °F 41.1 °F 41.0 °F 93% 30.34 in 10.0 mi ESE 3.5 mph - N/A   Clear
2:35 AM 42.8 °F 41.1 °F 41.0 °F 93% 30.33 in 10.0 mi East 3.5 mph - N/A   Clear
2:55 AM 41.0 °F - 39.2 °F 93% 30.33 in 10.0 mi Calm Calm - N/A   Clear
3:15 AM 41.0 °F - 39.2 °F 93% 30.32 in 10.0 mi Calm Calm - N/A   Partly Cloudy
3:35 AM 41.0 °F - 41.0 °F 100% 30.32 in 10.0 mi Calm Calm - N/A   Mostly Cloudy
3:55 AM 44.6 °F - 41.0 °F 87% 30.31 in 10.0 mi Calm Calm - N/A   Mostly Cloudy
4:15 AM 42.8 °F - 41.0 °F 93% 30.31 in 10.0 mi Calm Calm - N/A   Mostly Cloudy
4:35 AM 42.8 °F - 41.0 °F 93% 30.29 in 10.0 mi Calm Calm - N/A   Mostly Cloudy
4:55 AM 42.8 °F - 41.0 °F 93% 30.29 in 10.0 mi Calm Calm - N/A   Mostly Cloudy
5:15 AM 42.8 °F - 41.0 °F 93% 30.28 in 10.0 mi Calm Calm - N/A   Overcast
5:35 AM 42.8 °F - 41.0 °F 93% 30.28 in 10.0 mi Calm Calm - N/A   Overcast
5:55 AM 42.8 °F - 41.0 °F 93% 30.27 in 10.0 mi Calm Calm - N/A   Scattered Clouds
6:15 AM 41.0 °F - 41.0 °F 100% 30.27 in 10.0 mi Calm Calm - N/A   Scattered Clouds
6:35 AM 41.0 °F - 39.2 °F 93% 30.26 in 10.0 mi Calm Calm - N/A   Partly Cloudy
6:55 AM 41.0 °F - 39.2 °F 93% 30.26 in 10.0 mi Calm Calm - N/A   Partly Cloudy
7:15 AM 41.0 °F - 41.0 °F 100% 30.25 in 10.0 mi Calm Calm - N/A   Partly Cloudy
7:35 AM 41.0 °F - 41.0 °F 100% 30.25 in 10.0 mi Calm Calm - N/A   Scattered Clouds
7:55 AM 41.0 °F - 41.0 °F 100% 30.24 in 10.0 mi Calm Calm - N/A   Partly Cloudy
8:15 AM 41.0 °F - 41.0 °F 100% 30.24 in 10.0 mi Calm Calm - N/A   Scattered Clouds
8:35 AM 41.0 °F - 41.0 °F 100% 30.24 in 10.0 mi Calm Calm - N/A   Partly Cloudy
8:55 AM 41.0 °F - 41.0 °F 100% 30.23 in 10.0 mi Calm Calm - N/A   Partly Cloudy
9:15 AM 41.0 °F - 41.0 °F 100% 30.24 in 7.0 mi Calm Calm - N/A Rain Light Rain
9:35 AM 42.8 °F - 41.0 °F 93% 30.22 in 9.0 mi Calm Calm - N/A Rain Light Rain
9:55 AM 42.8 °F - 42.8 °F 100% 30.22 in 10.0 mi Calm Calm - N/A   Scattered Clouds
10:15 AM 44.6 °F - 42.8 °F 93% 30.22 in 10.0 mi Calm Calm - N/A   Mostly Cloudy
10:35 AM 44.6 °F - 42.8 °F 93% 30.22 in 10.0 mi Calm Calm - N/A Rain Light Rain
10:55 AM 44.6 °F - 42.8 °F 93% 30.20 in 10.0 mi Calm Calm - N/A   Scattered Clouds
11:15 AM 44.6 °F - 41.0 °F 87% 30.19 in 10.0 mi Calm Calm - N/A   Mostly Cloudy
11:35 AM 44.6 °F - 41.0 °F 87% 30.18 in 10.0 mi Calm Calm - N/A   Mostly Cloudy
11:55 AM 44.6 °F - 41.0 °F 87% 30.17 in 10.0 mi Calm Calm - N/A   Scattered Clouds
12:35 PM 44.6 °F - 41.0 °F 87% 30.15 in 10.0 mi Calm Calm - N/A   Scattered Clouds
12:55 PM 44.6 °F - 41.0 °F 87% 30.14 in 10.0 mi Calm Calm - N/A   Scattered Clouds
1:15 PM 46.4 °F - 41.0 °F 81% 30.13 in 10.0 mi Calm Calm - N/A   Mostly Cloudy
1:35 PM 46.4 °F - 41.0 °F 81% 30.10 in 10.0 mi Calm Calm - N/A   Scattered Clouds
1:55 PM 46.4 °F 45.2 °F 41.0 °F 81% 30.09 in 10.0 mi NNE 3.5 mph - N/A   Mostly Cloudy
2:15 PM 46.4 °F 44.3 °F 41.0 °F 81% 30.08 in 10.0 mi ENE 4.6 mph - N/A   Scattered Clouds
2:35 PM 46.4 °F - 41.0 °F 81% 30.07 in 10.0 mi Calm Calm - N/A   Mostly Cloudy
2:55 PM 48.2 °F - 42.8 °F 82% 30.06 in 10.0 mi Calm Calm - N/A   Mostly Cloudy
3:15 PM 48.2 °F - 42.8 °F 82% 30.06 in 10.0 mi Calm Calm - N/A   Partly Cloudy
3:35 PM 48.2 °F - 41.0 °F 76% 30.05 in 10.0 mi Calm Calm - N/A   Partly Cloudy
4:15 PM 44.6 °F - 41.0 °F 87% 30.04 in 10.0 mi Calm Calm - N/A   Clear
4:35 PM 44.6 °F - 41.0 °F 87% 30.03 in 10.0 mi Calm Calm - N/A   Mostly Cloudy
4:55 PM 44.6 °F - 41.0 °F 87% 30.02 in 10.0 mi Calm Calm - N/A   Scattered Clouds
5:15 PM 44.6 °F - 41.0 °F 87% 30.00 in 10.0 mi Calm Calm - N/A   Clear
5:35 PM 42.8 °F - 41.0 °F 93% 30.01 in 10.0 mi Calm Calm - N/A   Clear
5:55 PM 41.0 °F - 41.0 °F 100% 30.00 in 10.0 mi Calm Calm - N/A   Clear
6:15 PM 42.8 °F - 41.0 °F 93% 29.98 in 9.0 mi Calm Calm - N/A   Clear
6:35 PM 46.4 °F 40.4 °F 37.4 °F 71% 29.97 in 10.0 mi SSW 13.8 mph 17.3 mph N/A   Clear
6:55 PM 46.4 °F 39.8 °F 39.2 °F 76% 29.96 in 10.0 mi SSW 16.1 mph - N/A   Clear
7:15 PM 46.4 °F 40.7 °F 39.2 °F 76% 29.97 in 10.0 mi SSW 12.7 mph - N/A   Clear
7:35 PM 44.6 °F 38.8 °F 39.2 °F 81% 29.98 in 10.0 mi SSW 11.5 mph - N/A   Mostly Cloudy
7:55 PM 44.6 °F 39.7 °F 39.2 °F 81% 29.97 in 10.0 mi South 9.2 mph - N/A   Overcast
8:15 PM 44.6 °F 38.8 °F 41.0 °F 87% 29.96 in 10.0 mi South 11.5 mph - N/A   Mostly Cloudy
8:35 PM 44.6 °F 38.1 °F 41.0 °F 87% 29.99 in 10.0 mi South 13.8 mph 21.9 mph N/A   Mostly Cloudy
8:55 PM 44.6 °F 39.2 °F 41.0 °F 87% 29.99 in 10.0 mi South 10.4 mph 16.1 mph N/A   Mostly Cloudy
9:15 PM 44.6 °F 38.8 °F 41.0 °F 87% 29.99 in 10.0 mi South 11.5 mph - N/A   Mostly Cloudy
9:35 PM 44.6 °F 40.2 °F 41.0 °F 87% 30.01 in 10.0 mi SSW 8.1 mph - N/A Rain Light Rain
9:55 PM 44.6 °F 40.7 °F 41.0 °F 87% 30.01 in 4.0 mi South 6.9 mph - N/A Rain Rain
10:15 PM 44.6 °F - 41.0 °F 87% 30.01 in 4.0 mi North - - 0.01 in Rain Rain
10:35 PM 42.8 °F 39.3 °F 42.8 °F 100% 30.01 in 3.0 mi South 5.8 mph - 0.02 in Rain Heavy Rain
10:55 PM 44.6 °F 42.2 °F 42.8 °F 93% 30.02 in 5.0 mi South 4.6 mph - 0.04 in Rain Light Rain
11:15 PM 44.6 °F 41.4 °F 42.8 °F 93% 30.02 in 3.0 mi South 5.8 mph - N/A Rain Rain
11:35 PM 44.6 °F 43.1 °F 42.8 °F 93% 30.02 in 4.0 mi South 3.5 mph - N/A Rain Light Rain
11:55 PM 44.6 °F 42.2 °F 42.8 °F 93% 30.03 in 7.0 mi South 4.6 mph - N/A Rain Light Rain